#timestamp,LO_Frequency,Hit,StdDev 
1558638015.0,286047000.9,N
1558638015.9,286047000.9,N
1558638035.8,286047000.2,N
1558638055.6,286047000.3,N
1558638075.4,286047000.8,N
1558638095.3,286047001.0,N
1558638115.1,286046999.8,N
1558638135.9,286047002.2,N
1558638155.7,286047002.3,N
1558638175.5,286047001.5,N
1558638195.4,286047001.8,N
1558638215.2,286047001.7,N
1558638235.1,286047004.4,Y
1558638236.0,286047004.4,P
1558638255.8,286047003.6,N
1558638275.6,286047003.6,N
1558638295.5,286047003.7,N
1558638315.3,286047001.3,N
1558638335.2,286047001.4,N
1558638355.9,286047001.8,N
1558638375.7,286047003.2,N
1558638395.6,286047003.9,Y
1558638415.4,286047000.0,P
1558638435.3,286047001.1,N
1558638455.1,286047001.2,N
1558638456.0,286047001.2,N
1558638475.8,286046998.5,N
1558638495.7,286047000.6,N
1558638515.5,286047000.0,N
1558638535.3,286047001.6,N
1558638555.2,286047002.6,N
1558638575.0,286047001.9,N
1558638575.9,286047001.9,N
1558638595.8,286047001.8,N
1558638615.6,286047001.7,N
1558638635.4,286047003.7,Y
1558638655.3,286047002.4,P
1558638675.1,286047002.5,P
1558638695.9,286046999.7,N
1558638715.7,286047000.1,N
1558638735.5,286047002.7,N
1558638755.4,286047000.4,N
1558638775.2,286046999.5,N
1558638795.1,286046999.6,N
1558638796.0,286046999.6,N
1558638815.8,286046997.0,N
1558638835.6,286046997.3,N
1558638855.5,286046996.1,N
1558638875.3,286046996.0,N
1558638895.1,286046996.3,N
1558638915.9,286046995.5,N
1558638935.7,286046995.0,N
1558638955.6,286046996.5,N
1558638975.4,286047000.7,N
1558638995.2,286046998.5,N
1558639015.1,286046998.8,N
1558639016.0,286046998.8,N
1558639035.8,286047000.2,N
1558639055.7,286047000.0,N
1558639075.5,286047002.0,N
1558639095.3,286047003.8,N
1558639115.2,286047005.5,N
1558639135.0,286047005.6,N
1558639135.9,286047005.6,N
1558639155.8,286047005.9,N
1558639175.6,286047005.9,N
1558639195.4,286047004.5,N
1558639215.3,286047006.1,N
1558639235.1,286047008.7,N
1558639255.9,286047008.5,N
1558639275.7,286047008.5,N
1558639295.5,286047009.5,N
1558639315.4,286047009.3,N
1558639335.2,286047012.3,N
1558639355.0,286047010.1,N
1558639355.9,286047010.1,N
1558639375.8,286047009.3,N
1558639395.6,286047011.4,N
1558639415.5,286047011.1,N
1558639435.3,286047015.9,Y
1558639455.1,286047017.8,P
1558639475.9,286047021.1,P
1558639495.7,286047022.2,P
1558639515.5,286047022.8,Y
1558639535.4,286047008.5,P
1558639555.2,286047009.9,N
1558639575.1,286047009.4,N
1558639576.0,286047009.4,N
1558639595.8,286047010.0,Y
1558639615.6,286046999.0,P
1558639635.5,286046998.6,N
1558639655.3,286047000.4,N
1558639675.2,286047000.1,N
1558639695.9,286046998.3,N
1558639715.7,286046995.3,N
1558639735.6,286046994.2,N
1558639755.4,286046990.5,N
1558639775.2,286046989.3,N
1558639795.1,286046987.5,N
1558639796.0,286046987.5,N
1558639815.8,286046987.8,N
1558639835.7,286046987.4,N
1558639855.5,286046988.2,N
1558639875.3,286046985.4,N
1558639895.2,286046986.2,N
1558639915.0,286046984.1,N
1558639915.9,286046984.1,N
1558639935.8,286046983.8,N
1558639955.6,286046985.7,N
1558639975.4,286046986.3,N
1558639995.3,286046984.2,N
1558640015.1,286046984.8,N
1558640035.8,286046983.3,N
1558640055.7,286046982.6,N
1558640075.5,286046982.4,N
1558640095.4,286046982.1,N
1558640115.2,286046982.6,N
1558640135.0,286046982.1,N
1558640135.9,286046982.1,N
1558640155.8,286046984.6,N
1558640175.6,286046984.8,N
1558640195.5,286046982.5,Y
1558640215.3,286046996.0,P
1558640235.1,286046994.3,N
1558640255.9,286046993.5,N
1558640275.7,286046995.6,N
1558640295.6,286046997.6,N
1558640315.4,286046994.9,N
1558640335.2,286046995.8,N
1558640355.1,286046995.5,N
1558640356.0,286046995.5,N
1558640375.8,286046997.5,N
1558640395.6,286046999.0,N
1558640415.5,286046999.3,N
1558640435.3,286046998.2,N
1558640455.2,286046998.8,N
1558640475.9,286046999.5,N
1558640495.7,286046999.6,N
1558640515.6,286046999.4,N
1558640535.4,286046998.5,N
1558640555.2,286046998.6,N
1558640575.1,286047000.4,N
1558640576.0,286047000.4,N
1558640595.8,286047002.3,N
1558640615.7,286046999.7,N
1558640635.5,286047000.9,N
1558640655.3,286046999.7,N
1558640675.2,286047001.1,N
1558640695.0,286047002.4,N
1558640695.9,286047002.4,N
1558640715.8,286047001.9,N
1558640735.6,286047005.5,N
1558640755.4,286047005.2,N
1558640775.3,286047003.0,N
1558640795.1,286047005.6,N
1558640815.8,286047005.9,N
1558640835.7,286047007.6,N
1558640855.5,286047007.5,N
1558640875.4,286047005.4,N
1558640895.2,286047006.0,N
1558640915.0,286047005.9,N
1558640915.9,286047005.9,N
1558640935.8,286047005.6,N
1558640955.6,286047005.4,N
1558640975.4,286047007.2,N
1558640995.3,286047010.7,Y
1558641015.1,286047006.5,P
1558641035.9,286047008.8,P
1558641055.7,286047007.7,P
1558641075.5,286047009.8,Y
1558641095.4,286047004.7,P
1558641115.2,286047007.2,P
1558641135.1,286047008.5,P
1558641136.0,286047008.5,Y
1558641155.8,286047001.4,P
1558641175.6,286047000.3,N
1558641195.5,286047000.5,N
1558641215.3,286047001.4,N
1558641235.1,286047002.2,N
1558641255.9,286047002.7,N
1558641275.7,286047004.2,N
1558641295.6,286047003.5,N
1558641315.4,286047003.8,N
1558641335.2,286047004.2,N
1558641355.1,286047005.4,N
1558641356.0,286047005.4,N
1558641375.8,286047004.9,N
1558641395.7,286047009.0,Y
1558641415.5,286047006.0,P
1558641435.3,286047004.5,P
1558641455.2,286047004.8,P
1558641475.0,286047005.9,Y
1558641475.9,286047005.9,P
1558641495.8,286047000.5,N
1558641515.6,286047000.1,N
1558641535.4,286047002.7,N
1558641555.3,286047000.2,N
1558641575.1,286047001.5,N
1558641595.8,286047002.9,N
